FW1957 Weather Reports


Display with metric or nautical units.
time (UTC)temp
F
wind
direction
speed
MPH
gust
MPH
rain 1hr
in
rain 24hr
in
rain mn
in
humidity
%
barometer
mb
20260903041210 65 236 5.0 11.0 0.00 0.00 0.00 72 1018.7
20260903040705 65 246 6.0 11.0 0.00 0.00 0.00 73 1018.7
20260903040216 65 236 6.0 10.0 0.00 0.00 0.00 73 1018.6
20260903035708 64 269 4.0 6.0 0.00 0.00 0.00 74 1018.7
20260903034714 64 215 3.0 5.0 0.00 0.00 0.00 75 1018.5
20260903033712 64 243 3.0 6.0 0.00 0.00 0.00 74 1018.5
20260903033208 64 254 3.0 6.0 0.00 0.00 0.00 74 1018.4
20260903032707 64 253 3.0 9.0 0.00 0.00 0.00 74 1018.4
20260903030216 64 278 3.0 5.0 0.00 0.00 0.00 77 1018.4
20260903025213 63 235 3.0 6.0 0.00 0.00 0.00 78 1018.4
20260903024713 63 232 3.0 8.0 0.00 0.00 0.00 78 1018.4
20260903024208 63 248 4.0 8.0 0.00 0.00 0.00 78 1018.4
20260903023716 63 240 5.0 8.0 0.00 0.00 0.00 78 1018.5
20260903023208 63 246 5.0 8.0 0.00 0.00 0.00 78 1018.5
20260903022710 64 240 3.0 5.0 0.00 0.00 0.00 79 1018.5
20260903022217 64 245 2.0 5.0 0.00 0.00 0.00 78 1018.4
20260903021707 64 236 0.0 0.0 0.00 0.00 0.00 77 1018.4
20260903021220 64 255 0.0 0.0 0.00 0.00 0.00 76 1018.3
20260903020716 64 255 0.0 0.0 0.00 0.00 0.00 76 1018.3
20260903020218 64 255 0.0 0.0 0.00 0.00 0.00 76 1018.4
20260903015716 64 255 0.0 0.0 0.00 0.00 0.00 76 1018.4
20260903015214 64 255 0.0 0.0 0.00 0.00 0.00 76 1018.4
20260903014709 64 255 0.0 1.0 0.00 0.00 0.00 76 1018.4
20260903014228 65 255 0.0 1.0 0.00 0.00 0.00 76 1018.4
20260903013220 65 269 0.0 2.0 0.00 0.00 0.00 77 1018.4
20260903012715 65 269 0.0 2.0 0.00 0.00 0.00 77 1018.4
20260903012219 65 281 0.0 2.0 0.00 0.00 0.00 77 1018.4
20260903010716 65 309 0.0 2.0 0.00 0.00 0.00 74 1018.5
20260903010205 65 309 0.0 2.0 0.00 0.00 0.00 74 1018.5
20260903005719 65 309 0.0 2.0 0.00 0.00 0.00 74 1018.5
20260903004712 65 320 1.0 2.0 0.00 0.00 0.00 74 1018.5
20260903004214 65 323 1.0 2.0 0.00 0.00 0.00 75 1018.6
20260903003707 66 272 0.0 3.0 0.00 0.00 0.00 75 1018.6
20260903003208 66 272 1.0 3.0 0.00 0.00 0.00 74 1018.6
20260903002709 66 315 2.0 4.0 0.00 0.00 0.00 74 1018.6
20260903002205 66 267 2.0 4.0 0.00 0.00 0.00 74 1018.6
20260903000710 66 279 1.0 3.0 0.00 0.00 0.00 73 1018.6
20260903000213 67 247 1.0 3.0 0.00 0.00 0.00 72 1018.6
20260902235710 67 247 1.0 3.0 0.00 0.00 0.00 73 1018.7
20260902235205 67 234 1.0 3.0 0.00 0.00 0.00 73 1018.6
20260902234712 67 192 0.0 2.0 0.00 0.00 0.00 73 1018.6
20260902234205 67 192 0.0 0.0 0.00 0.00 0.00 72 1018.7
20260902233708 68 263 0.0 0.0 0.00 0.00 0.00 71 1018.7
20260902233210 68 263 0.0 0.0 0.00 0.00 0.00 69 1018.7
20260902232717 68 263 0.0 0.0 0.00 0.00 0.00 68 1018.7
20260902232216 68 263 0.0 0.0 0.00 0.00 0.00 66 1018.7
20260902231719 68 263 0.0 0.0 0.00 0.00 0.00 65 1018.7
20260902231209 69 263 0.0 0.0 0.00 0.00 0.00 65 1018.6
20260902230718 69 263 0.0 1.0 0.00 0.00 0.00 65 1018.6
20260902230219 69 269 0.0 3.0 0.00 0.00 0.00 64 1018.7
20260902225716 69 274 0.0 3.0 0.00 0.00 0.00 63 1018.7
20260902225209 70 274 1.0 3.0 0.00 0.00 0.00 63 1018.6
20260902224705 70 271 0.0 3.0 0.00 0.00 0.00 61 1018.5
20260902224215 70 319 1.0 3.0 0.00 0.00 0.00 60 1018.5
20260902223714 70 310 1.0 3.0 0.00 0.00 0.00 60 1018.5
20260902223215 70 327 2.0 3.0 0.00 0.00 0.00 59 1018.4
20260902222710 71 355 2.0 4.0 0.00 0.00 0.00 59 1018.3
20260902222220 71 355 2.0 7.0 0.00 0.00 0.00 59 1018.3
20260902221208 71 355 4.0 9.0 0.00 0.00 0.00 57 1018.2
20260902220712 71 335 5.0 12.0 0.00 0.00 0.00 56 1018.2
20260902215711 71 294 6.0 12.0 0.00 0.00 0.00 56 1018.2
20260902215209 71 271 7.0 13.0 0.00 0.00 0.00 57 1018.2
20260902214748 71 280 7.0 13.0 0.00 0.00 0.00 57 1018.2
20260902214212 71 261 7.0 13.0 0.00 0.00 0.00 57 1018.1
20260902213214 71 283 5.0 11.0 0.00 0.00 0.00 58 1018.1
20260902212712 70 261 6.0 11.0 0.00 0.00 0.00 58 1018.1
20260902212241 70 327 6.0 10.0 0.00 0.00 0.00 59 1018.1
20260902211713 70 270 5.0 10.0 0.00 0.00 0.00 59 1018.0
20260902211219 70 306 5.0 9.0 0.00 0.00 0.00 59 1018.0
20260902210719 70 279 5.0 9.0 0.00 0.00 0.00 60 1018.0
20260902210214 69 304 5.0 8.0 0.00 0.00 0.00 60 1018.1
20260902205705 69 275 4.0 9.0 0.00 0.00 0.00 61 1018.1
20260902205220 69 278 4.0 9.0 0.00 0.00 0.00 64 1018.1
20260902204710 69 260 4.0 9.0 0.00 0.00 0.00 62 1018.1
20260902204211 69 270 4.0 8.0 0.00 0.00 0.00 62 1018.1
20260902203713 69 273 5.0 8.0 0.00 0.00 0.00 62 1018.1
20260902203207 69 280 5.0 8.0 0.00 0.00 0.00 63 1018.1
20260902202706 69 254 4.0 9.0 0.00 0.00 0.00 64 1018.0
20260902202213 68 318 4.0 9.0 0.00 0.00 0.00 65 1018.1
20260902201718 68 292 4.0 9.0 0.00 0.00 0.00 67 1018.1
20260902201220 68 288 3.0 7.0 0.00 0.00 0.00 68 1018.1
20260902200717 68 283 3.0 7.0 0.00 0.00 0.00 69 1018.1
20260902200217 68 296 3.0 4.0 0.00 0.00 0.00 71 1018.1
20260902195714 69 287 2.0 4.0 0.00 0.00 0.00 72 1018.1
20260902194214 69 234 3.0 7.0 0.00 0.00 0.00 72 1018.0
20260902193707 69 243 4.0 7.0 0.00 0.00 0.00 71 1018.0
20260902193219 69 250 4.0 8.0 0.00 0.00 0.00 71 1018.1
20260902192710 69 229 4.0 9.0 0.00 0.00 0.00 71 1018.0
20260902191709 70 245 6.0 9.0 0.00 0.00 0.00 70 1018.0
20260902191205 70 246 5.0 8.0 0.00 0.00 0.00 70 1017.9
20260902190714 71 234 4.0 6.0 0.00 0.00 0.00 70 1017.9
20260902190215 71 232 4.0 6.0 0.00 0.00 0.00 70 1017.8
20260902185217 71 243 3.0 6.0 0.00 0.00 0.00 68 1017.7
20260902184710 71 267 4.0 6.0 0.00 0.00 0.00 68 1017.6
20260902184211 72 221 3.0 5.0 0.00 0.00 0.00 68 1017.6
20260902183709 72 223 2.0 4.0 0.00 0.00 0.00 67 1017.6
20260902182713 72 217 3.0 4.0 0.00 0.00 0.00 67 1017.4
20260902182209 73 227 2.0 5.0 0.00 0.00 0.00 67 1017.4
20260902181207 73 161 2.0 4.0 0.00 0.00 0.00 66 1017.2
20260902180710 73 227 2.0 5.0 0.00 0.00 0.00 65 1017.2
20260902180215 74 271 3.0 5.0 0.00 0.00 0.00 63 1017.2
20260902175712 74 272 3.0 6.0 0.00 0.00 0.00 63 1017.2
20260902175213 74 290 3.0 7.0 0.00 0.00 0.00 63 1017.2
20260902174710 74 223 4.0 7.0 0.00 0.00 0.00 62 1017.1
20260902174218 74 217 4.0 8.0 0.00 0.00 0.00 61 1017.1
20260902173705 75 213 4.0 8.0 0.00 0.00 0.00 61 1017.1
20260902173208 75 217 4.0 6.0 0.00 0.00 0.00 61 1017.1
20260902172208 76 221 3.0 6.0 0.00 0.00 0.00 59 1017.0
20260902171714 76 215 2.0 3.0 0.00 0.00 0.00 59 1016.9
20260902171213 76 221 2.0 5.0 0.00 0.00 0.00 61 1016.9
20260902170715 77 169 2.0 5.0 0.00 0.00 0.00 60 1017.0
20260902170218 77 180 2.0 5.0 0.00 0.00 0.00 59 1017.0
20260902165710 77 157 3.0 5.0 0.00 0.00 0.00 58 1017.0
20260902165211 77 160 3.0 5.0 0.00 0.00 0.00 57 1017.0
20260902164708 78 167 3.0 6.0 0.00 0.00 0.00 57 1017.0
20260902164244 78 159 3.0 6.0 0.00 0.00 0.00 56 1017.1
20260902162706 78 169 3.0 9.0 0.00 0.00 0.00 55 1017.1
20260902162218 78 153 4.0 9.0 0.00 0.00 0.00 55 1017.1
20260902161708 78 153 4.0 9.0 0.00 0.00 0.00 55 1017.1
20260902161211 78 153 4.0 8.0 0.00 0.00 0.00 56 1017.1
20260902160708 78 119 4.0 8.0 0.00 0.00 0.00 55 1017.1
20260902160214 78 157 4.0 9.0 0.00 0.00 0.00 55 1017.1
20260902155710 78 144 4.0 10.0 0.00 0.00 0.00 54 1017.1
20260902154212 79 161 6.0 13.0 0.00 0.00 0.00 54 1017.3
20260902153709 79 163 7.0 13.0 0.00 0.00 0.00 54 1017.4
20260902152707 79 136 7.0 13.0 0.00 0.00 0.00 54 1017.3
20260902152217 80 159 7.0 11.0 0.00 0.00 0.00 53 1017.3
20260902151718 80 153 5.0 10.0 0.00 0.00 0.00 53 1017.3
20260902150705 80 168 5.0 9.0 0.00 0.00 0.00 51 1017.2
20260902145716 80 138 5.0 9.0 0.00 0.00 0.00 51 1017.2
20260902145208 80 152 5.0 9.0 0.00 0.00 0.00 51 1017.2
20260902144713 80 140 5.0 9.0 0.00 0.00 0.00 50 1017.3
20260902144209 80 118 5.0 9.0 0.00 0.00 0.00 48 1017.3
20260902143719 80 138 3.0 7.0 0.00 0.00 0.00 48 1017.3
20260902143212 80 133 3.0 7.0 0.00 0.00 0.00 48 1017.4
20260902142741 81 80 3.0 10.0 0.00 0.00 0.00 47 1017.3
20260902141213 82 62 4.0 7.0 0.00 0.00 0.00 46 1017.4
20260902140711 82 138 2.0 8.0 0.00 0.00 0.00 46 1017.3
20260902140218 82 48 1.0 10.0 0.00 0.00 0.00 46 1017.6
20260902135718 82 76 3.0 10.0 0.00 0.00 0.00 47 1017.6
20260902135234 82 165 4.0 10.0 0.00 0.00 0.00 45 1017.6
20260902134705 82 116 4.0 14.0 0.00 0.00 0.00 45 1017.6
20260902134214 82 71 5.0 14.0 0.00 0.00 0.00 44 1017.6
20260902133710 83 103 5.0 14.0 0.00 0.00 0.00 45 1017.6
20260902133214 83 67 5.0 13.0 0.00 0.00 0.00 45 1017.4
20260902132707 83 40 5.0 13.0 0.00 0.00 0.00 45 1017.6
20260902132211 83 81 5.0 11.0 0.00 0.00 0.00 44 1017.7
20260902131721 83 90 3.0 10.0 0.00 0.00 0.00 45 1017.6
20260902130710 83 16 5.0 10.0 0.00 0.00 0.00 43 1017.8
20260902130218 84 17 4.0 9.0 0.00 0.00 0.00 44 1017.8
20260902125713 84 121 4.0 9.0 0.00 0.00 0.00 43 1017.8
20260902125208 84 34 4.0 8.0 0.00 0.00 0.00 45 1017.9
20260902124711 84 151 4.0 8.0 0.00 0.00 0.00 46 1017.9
20260902124210 84 150 3.0 8.0 0.00 0.00 0.00 44 1017.9
20260902123719 83 179 4.0 7.0 0.00 0.00 0.00 46 1018.0
20260902123208 83 157 4.0 7.0 0.00 0.00 0.00 43 1018.1
20260902122711 83 169 2.0 4.0 0.00 0.00 0.00 46 1018.1
20260902122211 83 255 2.0 8.0 0.00 0.00 0.00 45 1018.1
20260902121717 82 171 2.0 8.0 0.00 0.00 0.00 45 1018.2
20260902121208 82 128 3.0 8.0 0.00 0.00 0.00 45 1018.3
20260902120710 82 82 3.0 9.0 0.00 0.00 0.00 47 1018.4
20260902120207 82 76 4.0 9.0 0.00 0.00 0.00 45 1018.5
20260902115713 82 83 4.0 9.0 0.00 0.00 0.00 44 1018.6
20260902115212 82 140 3.0 9.0 0.00 0.00 0.00 47 1018.6
20260902114709 82 175 4.0 9.0 0.00 0.00 0.00 46 1018.5
20260902114212 82 175 4.0 9.0 0.00 0.00 0.00 45 1018.6
20260902113747 82 137 3.0 8.0 0.00 0.00 0.00 47 1018.6
20260902113209 82 76 4.0 8.0 0.00 0.00 0.00 46 1018.7
20260902112206 82 109 2.0 9.0 0.00 0.00 0.00 48 1018.7
20260902111712 81 202 4.0 13.0 0.00 0.00 0.00 48 1018.7
20260902110711 81 148 6.0 13.0 0.00 0.00 0.00 49 1018.9
20260902110226 80 159 6.0 11.0 0.00 0.00 0.00 50 1019.0
20260902105723 80 53 4.0 11.0 0.00 0.00 0.00 49 1019.0
20260902105207 80 159 6.0 11.0 0.00 0.00 0.00 49 1019.1
20260902104708 80 109 5.0 10.0 0.00 0.00 0.00 49 1019.2
20260902104219 80 84 5.0 13.0 0.00 0.00 0.00 49 1019.2
20260902103705 80 146 5.0 13.0 0.00 0.00 0.00 49 1019.3
20260902103209 80 154 5.0 13.0 0.00 0.00 0.00 50 1019.3
20260902102711 79 130 5.0 11.0 0.00 0.00 0.00 51 1019.4
20260902101715 79 136 4.0 9.0 0.00 0.00 0.00 52 1019.5
20260902101209 79 148 4.0 12.0 0.00 0.00 0.00 51 1019.4
20260902100211 79 96 5.0 12.0 0.00 0.00 0.00 51 1019.6
20260902095708 78 49 5.0 11.0 0.00 0.00 0.00 52 1019.6
20260902095207 78 183 5.0 10.0 0.00 0.00 0.00 52 1019.7
20260902094719 78 148 4.0 10.0 0.00 0.00 0.00 54 1019.7
20260902094207 78 115 5.0 10.0 0.00 0.00 0.00 53 1019.8
20260902093737 78 71 5.0 10.0 0.00 0.00 0.00 53 1019.8
20260902092718 78 102 4.0 9.0 0.00 0.00 0.00 53 1019.8
20260902092219 78 26 4.0 9.0 0.00 0.00 0.00 54 1019.8
20260902091706 78 92 4.0 10.0 0.00 0.00 0.00 52 1019.9
20260902091213 78 103 4.0 10.0 0.00 0.00 0.00 55 1019.9
20260902090712 78 104 4.0 10.0 0.00 0.00 0.00 54 1019.9
20260902090206 78 101 4.0 8.0 0.00 0.00 0.00 54 1019.9
20260902085715 78 160 3.0 8.0 0.00 0.00 0.00 55 1019.8
20260902084713 77 142 3.0 8.0 0.00 0.00 0.00 56 1019.9
20260902084211 77 84 3.0 7.0 0.00 0.00 0.00 58 1019.9
20260902083715 77 71 3.0 7.0 0.00 0.00 0.00 58 1019.9
20260902083210 76 138 3.0 6.0 0.00 0.00 0.00 57 1019.9
20260902082711 76 63 3.0 6.0 0.00 0.00 0.00 59 1019.9
20260902082212 76 87 3.0 6.0 0.00 0.00 0.00 60 1020.0
20260902081707 75 150 3.0 6.0 0.00 0.00 0.00 61 1020.0
20260902081206 74 167 2.0 5.0 0.00 0.00 0.00 63 1020.0
20260902080719 74 149 2.0 5.0 0.00 0.00 0.00 62 1020.0
20260902080209 73 148 2.0 5.0 0.00 0.00 0.00 65 1020.0
20260902075710 72 169 1.0 4.0 0.00 0.00 0.00 64 1019.9
20260902075215 72 199 2.0 5.0 0.00 0.00 0.00 67 1020.0
20260902074719 72 205 2.0 5.0 0.00 0.00 0.00 67 1019.9
20260902074206 71 171 2.0 5.0 0.00 0.00 0.00 69 1019.9
20260902073710 71 226 3.0 5.0 0.00 0.00 0.00 69 1019.9
20260902073209 70 239 3.0 5.0 0.00 0.00 0.00 70 1019.9
20260902072715 70 244 2.0 5.0 0.00 0.00 0.00 70 1019.8
20260902071719 69 225 3.0 7.0 0.00 0.00 0.00 71 1019.7
20260902070205 68 231 3.0 7.0 0.00 0.00 0.00 73 1019.5
20260902065718 68 144 3.0 7.0 0.00 0.00 0.00 75 1019.5
20260902065216 67 190 3.0 7.0 0.00 0.00 0.00 75 1019.5
20260902064717 67 209 4.0 6.0 0.00 0.00 0.00 77 1019.5
20260902064208 66 239 4.0 7.0 0.00 0.00 0.00 78 1019.4
20260902063712 66 256 4.0 7.0 0.00 0.00 0.00 79 1019.5
20260902063208 66 230 4.0 7.0 0.00 0.00 0.00 79 1019.5
20260902062716 65 233 4.0 6.0 0.00 0.00 0.00 80 1019.5
20260902061708 64 247 3.0 4.0 0.00 0.00 0.00 81 1019.6
20260902061207 64 252 3.0 4.0 0.00 0.00 0.00 81 1019.6
20260902060718 64 259 3.0 4.0 0.00 0.00 0.00 82 1019.6
20260902055718 63 243 1.0 4.0 0.00 0.00 0.00 82 1019.6
20260902055237 63 207 2.0 4.0 0.00 0.00 0.00 82 1019.6
20260902054718 63 244 2.0 3.0 0.00 0.00 0.00 81 1019.6
20260902054214 63 252 2.0 4.0 0.00 0.00 0.00 81 1019.5
20260902053712 63 250 3.0 4.0 0.00 0.00 0.00 81 1019.6
20260902053219 63 251 3.0 6.0 0.00 0.00 0.00 81 1019.5
20260902051217 63 242 4.0 9.0 0.00 0.00 0.00 82 1019.5
20260902050716 63 245 5.0 9.0 0.00 0.00 0.00 82 1019.5
20260902050217 63 239 5.0 9.0 0.00 0.00 0.00 82 1019.4
20260902045713 63 236 4.0 7.0 0.00 0.00 0.00 82 1019.4
20260902045215 63 215 4.0 7.0 0.00 0.00 0.00 82 1019.4
20260902044708 63 209 4.0 7.0 0.00 0.00 0.00 82 1019.4
20260902044217 63 225 4.0 8.0 0.00 0.00 0.00 82 1019.5
20260902043717 63 222 4.0 8.0 0.00 0.00 0.00 81 1019.5
20260902043207 63 217 5.0 9.0 0.00 0.00 0.00 81 1019.4
20260902042716 63 205 5.0 9.0 0.00 0.00 0.00 81 1019.4
20260902042216 63 223 5.0 12.0 0.00 0.00 0.00 81 1019.5
20260902041715 63 207 5.0 12.0 0.00 0.00 0.00 81 1019.5